| time (UTC) | temp C | wind direction | speed KPH | gust KPH | rain 1hr cm | rain 24hr cm | rain mn cm | humidity % | barometer mb |
| 20260506202339 | 15 | 298 | 0.0 | 0.0 | 0.00 | 0.71 | 0.71 | 82 | 1004.9 |
| 20260506201331 | 15 | 317 | 0.0 | 0.0 | 0.00 | 0.71 | 0.71 | 82 | 1004.9 |
| 20260506200344 | 15 | 175 | 0.0 | 0.0 | 0.00 | 0.71 | 0.71 | 82 | 1005.0 |
| 20260506195350 | 15 | 94 | 0.0 | 0.0 | 0.00 | 0.71 | 0.71 | 82 | 1005.0 |
| 20260506194344 | 15 | 163 | 0.0 | 0.0 | 0.00 | 0.71 | 0.71 | 82 | 1005.0 |
| 20260506192353 | 15 | 309 | 0.0 | 0.0 | 0.00 | 0.71 | 0.71 | 82 | 1005.2 |
| 20260506191349 | 15 | 118 | 0.0 | 0.0 | 0.03 | 0.71 | 0.71 | 82 | 1005.4 |
| 20260506190324 | 15 | 157 | 0.0 | 0.0 | 0.03 | 0.71 | 0.71 | 82 | 1005.4 |
| 20260506185322 | 15 | 300 | 0.0 | 0.0 | 0.05 | 0.71 | 0.71 | 82 | 1005.4 |
| 20260506183357 | 15 | 319 | 0.0 | 0.0 | 0.13 | 0.71 | 0.71 | 82 | 1005.5 |
| 20260506182402 | 15 | 320 | 0.0 | 0.0 | 0.15 | 0.71 | 0.71 | 82 | 1005.4 |
| 20260506181400 | 15 | 320 | 0.0 | 0.0 | 0.15 | 0.69 | 0.69 | 82 | 1005.4 |
| 20260506175352 | 15 | 217 | 0.0 | 0.0 | 0.13 | 0.66 | 0.66 | 83 | 1005.6 |
| 20260506174348 | 15 | 229 | 0.0 | 0.0 | 0.13 | 0.64 | 0.64 | 83 | 1005.7 |
| 20260506173329 | 15 | 290 | 0.0 | 0.0 | 0.08 | 0.58 | 0.58 | 83 | 1005.7 |
| 20260506172321 | 15 | 234 | 0.0 | 0.0 | 0.10 | 0.56 | 0.56 | 84 | 1005.6 |
| 20260506171302 | 15 | 313 | 0.0 | 0.0 | 0.13 | 0.53 | 0.53 | 84 | 1005.6 |
| 20260506165323 | 15 | 313 | 0.0 | 0.0 | 0.20 | 0.53 | 0.53 | 83 | 1005.6 |
| 20260506164331 | 15 | 313 | 0.0 | 0.0 | 0.20 | 0.51 | 0.51 | 84 | 1005.7 |
| 20260506163332 | 15 | 313 | 0.0 | 0.0 | 0.23 | 0.51 | 0.51 | 84 | 1005.8 |
| 20260506162401 | 15 | 313 | 0.0 | 0.0 | 0.18 | 0.46 | 0.46 | 85 | 1006.0 |
| 20260506160347 | 15 | 296 | 0.0 | 0.0 | 0.10 | 0.38 | 0.36 | 85 | 1006.1 |
| 20260506155327 | 15 | 238 | 0.0 | 0.0 | 0.10 | 0.36 | 0.33 | 85 | 1006.2 |
| 20260506152332 | 15 | 150 | 0.0 | 0.0 | 0.15 | 0.30 | 0.28 | 85 | 1005.8 |
| 20260506151327 | 15 | 150 | 0.0 | 0.0 | 0.15 | 0.28 | 0.25 | 85 | 1005.9 |
| 20260506150324 | 15 | 150 | 0.0 | 0.0 | 0.18 | 0.28 | 0.25 | 86 | 1005.9 |
| 20260506145237 | 15 | 150 | 0.0 | 0.0 | 0.18 | 0.25 | 0.23 | 86 | 1005.9 |
| 20260506143245 | 16 | 150 | 0.0 | 0.0 | 0.18 | 0.20 | 0.18 | 86 | 1006.3 |
| 20260506142302 | 16 | 150 | 0.0 | 0.0 | 0.13 | 0.15 | 0.13 | 85 | 1006.4 |
| 20260506141247 | 16 | 144 | 0.0 | 0.0 | 0.10 | 0.13 | 0.10 | 85 | 1006.7 |
| 20260506140243 | 16 | 216 | 0.0 | 0.0 | 0.08 | 0.10 | 0.08 | 85 | 1006.6 |
| 20260506135305 | 16 | 216 | 0.0 | 0.0 | 0.05 | 0.08 | 0.05 | 84 | 1006.8 |
| 20260506134307 | 16 | 155 | 0.0 | 0.0 | 0.03 | 0.05 | 0.03 | 83 | 1006.9 |
| 20260506133307 | 16 | 215 | 0.0 | 1.6 | 0.00 | 0.03 | 0.00 | 81 | 1006.9 |
| 20260506132237 | 17 | 229 | 0.0 | 0.0 | 0.00 | 0.03 | 0.00 | 79 | 1006.8 |
| 20260506131231 | 17 | 174 | 0.0 | 0.0 | 0.00 | 0.03 | 0.00 | 77 | 1006.4 |
| 20260506130224 | 17 | 92 | 0.0 | 0.0 | 0.00 | 0.03 | 0.00 | 75 | 1006.2 |
| 20260506124229 | 17 | 105 | 0.0 | 0.0 | 0.00 | 0.03 | 0.00 | 70 | 1006.3 |
| 20260506122252 | 17 | 206 | 0.0 | 0.0 | 0.00 | 0.03 | 0.00 | 69 | 1006.3 |
| 20260506121258 | 17 | 206 | 0.0 | 0.0 | 0.00 | 0.03 | 0.00 | 69 | 1006.3 |
| 20260506120250 | 17 | 206 | 0.0 | 0.0 | 0.00 | 0.03 | 0.00 | 68 | 1006.3 |
| 20260506115247 | 17 | 206 | 0.0 | 0.0 | 0.00 | 0.03 | 0.00 | 68 | 1006.2 |
| 20260506114246 | 17 | 205 | 0.0 | 0.0 | 0.00 | 0.03 | 0.00 | 67 | 1006.2 |
| 20260506113230 | 17 | 205 | 0.0 | 0.0 | 0.00 | 0.03 | 0.00 | 67 | 1006.2 |
| 20260506111240 | 16 | 205 | 0.0 | 0.0 | 0.00 | 0.03 | 0.00 | 66 | 1005.8 |
| 20260506110252 | 16 | 205 | 0.0 | 0.0 | 0.00 | 0.03 | 0.00 | 66 | 1005.7 |
| 20260506104309 | 16 | 205 | 0.0 | 0.0 | 0.00 | 0.03 | 0.00 | 65 | 1005.7 |
| 20260506102324 | 16 | 205 | 0.0 | 0.0 | 0.00 | 0.03 | 0.00 | 65 | 1005.9 |
| 20260506101313 | 16 | 205 | 0.0 | 0.0 | 0.00 | 0.03 | 0.00 | 64 | 1005.9 |
| 20260506100321 | 16 | 205 | 0.0 | 0.0 | 0.00 | 0.03 | 0.00 | 64 | 1005.7 |
| 20260506095307 | 16 | 205 | 0.0 | 0.0 | 0.00 | 0.03 | 0.00 | 65 | 1005.7 |
| 20260506094319 | 16 | 205 | 0.0 | 0.0 | 0.00 | 0.03 | 0.00 | 66 | 1005.8 |
| 20260506093310 | 16 | 205 | 0.0 | 0.0 | 0.00 | 0.03 | 0.00 | 66 | 1006.0 |
| 20260506092252 | 16 | 205 | 0.0 | 0.0 | 0.00 | 0.03 | 0.00 | 66 | 1005.9 |
| 20260506091224 | 16 | 205 | 0.0 | 0.0 | 0.00 | 0.03 | 0.00 | 67 | 1006.3 |
| 20260506090201 | 16 | 205 | 0.0 | 0.0 | 0.00 | 0.03 | 0.00 | 67 | 1006.2 |
| 20260506085214 | 16 | 205 | 0.0 | 1.6 | 0.00 | 0.03 | 0.00 | 67 | 1006.1 |
| 20260506084205 | 16 | 205 | 0.0 | 0.0 | 0.00 | 0.03 | 0.00 | 66 | 1005.9 |
| 20260506080241 | 16 | 205 | 0.0 | 0.0 | 0.00 | 0.03 | 0.00 | 66 | 1006.3 |
| 20260506073247 | 16 | 205 | 0.0 | 0.0 | 0.00 | 0.03 | 0.00 | 64 | 1006.3 |
| 20260506072214 | 16 | 205 | 0.0 | 0.0 | 0.00 | 0.03 | 0.00 | 65 | 1006.4 |
| 20260506071200 | 16 | 205 | 0.0 | 0.0 | 0.00 | 0.03 | 0.00 | 67 | 1006.5 |
| 20260506060119 | 15 | 205 | 0.0 | 0.0 | 0.00 | 0.03 | 0.00 | 71 | 1007.0 |
| 20260506051152 | 16 | 205 | 0.0 | 0.0 | 0.00 | 0.03 | 0.00 | 67 | 1007.1 |
| 20260506050149 | 16 | 205 | 0.0 | 0.0 | 0.00 | 0.03 | 0.00 | 66 | 1007.2 |
| 20260506044144 | 17 | 205 | 0.0 | 0.0 | 0.00 | 0.03 | 0.00 | 65 | 1007.2 |
| 20260506043125 | 17 | 205 | 0.0 | 0.0 | 0.00 | 0.03 | 0.00 | 64 | 1007.3 |
| 20260506042126 | 17 | 205 | 0.0 | 0.0 | 0.00 | 0.03 | 0.03 | 63 | 1007.4 |
| 20260506040131 | 18 | 205 | 0.0 | 0.0 | 0.00 | 0.03 | 0.03 | 60 | 1007.2 |
| 20260506035136 | 18 | 205 | 0.0 | 0.0 | 0.00 | 0.03 | 0.03 | 59 | 1007.2 |
| 20260506034139 | 18 | 205 | 0.0 | 0.0 | 0.00 | 0.03 | 0.03 | 59 | 1007.2 |
| 20260506033121 | 19 | 205 | 0.0 | 0.0 | 0.00 | 0.03 | 0.03 | 58 | 1007.1 |
| 20260506032112 | 19 | 205 | 0.0 | 0.0 | 0.00 | 0.03 | 0.03 | 57 | 1007.1 |
| 20260506031111 | 20 | 205 | 0.0 | 0.0 | 0.00 | 0.03 | 0.03 | 56 | 1007.0 |
| 20260506030108 | 20 | 205 | 0.0 | 0.0 | 0.00 | 0.03 | 0.03 | 56 | 1007.2 |
| 20260506025118 | 20 | 205 | 0.0 | 0.0 | 0.00 | 0.03 | 0.03 | 54 | 1007.2 |
| 20260506024051 | 20 | 205 | 0.0 | 0.0 | 0.00 | 0.03 | 0.03 | 54 | 1007.2 |
| 20260506023108 | 21 | 205 | 0.0 | 0.0 | 0.00 | 0.03 | 0.03 | 53 | 1007.2 |
| 20260506022115 | 21 | 205 | 0.0 | 0.0 | 0.00 | 0.03 | 0.03 | 53 | 1007.1 |
| 20260506021110 | 21 | 205 | 0.0 | 0.0 | 0.00 | 0.03 | 0.03 | 51 | 1007.0 |
| 20260506015054 | 21 | 205 | 0.0 | 0.0 | 0.00 | 0.03 | 0.03 | 50 | 1006.7 |
| 20260506013059 | 22 | 205 | 0.0 | 0.0 | 0.00 | 0.03 | 0.03 | 50 | 1006.5 |
| 20260506011054 | 22 | 222 | 0.0 | 0.0 | 0.00 | 0.03 | 0.03 | 48 | 1006.3 |
| 20260506010047 | 22 | 222 | 0.0 | 0.0 | 0.00 | 0.03 | 0.03 | 47 | 1006.4 |
| 20260506005039 | 22 | 222 | 0.0 | 0.0 | 0.00 | 0.03 | 0.03 | 49 | 1006.3 |
| 20260506004050 | 22 | 222 | 0.0 | 0.0 | 0.00 | 0.03 | 0.03 | 48 | 1006.2 |
| 20260506003055 | 22 | 222 | 0.0 | 0.0 | 0.00 | 0.03 | 0.03 | 48 | 1006.1 |
| 20260505235107 | 22 | 222 | 0.0 | 0.0 | 0.00 | 0.03 | 0.03 | 49 | 1005.9 |
| 20260505234110 | 22 | 209 | 0.0 | 0.0 | 0.00 | 0.03 | 0.03 | 50 | 1005.9 |
| 20260505233121 | 23 | 208 | 0.0 | 0.0 | 0.00 | 0.03 | 0.03 | 50 | 1005.9 |
| 20260505232121 | 23 | 207 | 0.0 | 0.0 | 0.00 | 0.03 | 0.03 | 49 | 1005.8 |
| 20260505231128 | 23 | 207 | 0.0 | 0.0 | 0.00 | 0.03 | 0.03 | 48 | 1005.6 |
| 20260505230122 | 23 | 204 | 0.0 | 0.0 | 0.00 | 0.03 | 0.03 | 48 | 1005.5 |
| 20260505225132 | 23 | 314 | 0.0 | 0.0 | 0.00 | 0.03 | 0.03 | 48 | 1005.5 |
| 20260505224129 | 23 | 170 | 0.0 | 0.0 | 0.00 | 0.03 | 0.03 | 48 | 1005.7 |
| 20260505222112 | 23 | 117 | 0.0 | 0.0 | 0.00 | 0.03 | 0.03 | 46 | 1005.6 |